Kahului, HI

12:16 AM HST on December 04, 2016 (GMT -1000)
Maunaleo | | Change Station
Active Advisory: Flash Flood Watch

Elev 358 ft 20.87 °N, 156.50 °W | Updated 30 seconds ago

Clear
Clear
73.1 °F
Feels Like 71 °F
N
3.0
Wind Variable Wind from SW

Today
High -- | Low -- °F
--% Chance of Precip.
Yesterday
High -- | Low -- °F
Precip. -- in
Pressure 29.86 in
Visibility 10.0 miles
Clouds Clear
Heat Index 71 °F
Dew Point 69 °F
Humidity 88%
Rainfall 0.00 in
Snow Depth Not available.
6:48 AM 5:44 PM
Waxing Crescent, 21% visible
METAR PHOG 040954Z 19016KT 10SM CLR 24/21 A2984 RMK AO2 SLP111 T02440211 403060200
Pressure 29.86 in
Visibility 10.0 miles
Clouds Clear
Heat Index 71 °F
Dew Point 69 °F
Humidity 88%
Rainfall 0.00 in
Snow Depth Not available.
6:48 AM 5:44 PM
Waxing Crescent, 21% visible
METAR PHOG 040954Z 19016KT 10SM CLR 24/21 A2984 RMK AO2 SLP111 T02440211 403060200

10-Day Weather Forecast

Almanac

Astronomy

Dec. 04, 2016 Rise Set
Actual Time
Civil Twilight
Nautical Twilight
Astronomical Twilight
Moon
Length of Visible Light
Length of Day
Tomorrow will be .
, % of the Moon is Illuminated

Today's Extremes

State Highs State Lows

Community

WunderPhotos

Upload Photos

1,955,591 photos uploaded!

WunderBlog® & News

Nearby

Air Quality

  Air Quality AQ Index Pollutant
Not available.

Snow Depth

Station Depth Elevation

Earthquake Activity

City Distance Mag. Time & Date
Minimum magnitude displayed is 2.5.

Coastal Water Temperatures

Place Temperature

Stations

Nearby Weather Stations

Station Location Temp. Windchill Dew Point Humidity Wind Precip. Elev Updated Type
                   

Watches & Warnings

Flash Flood Watch
Issued: 3:35 PM HST Dec. 3, 2016 – National Weather Service

... Flash Flood Watch remains in effect through Sunday afternoon...

The Flash Flood Watch continues for

* all Hawaiian islands.

* Through Sunday afternoon

* the combination of deep tropical moisture and an unstable
airmass will allow for the potential for heavy showers and
thunderstorms across the state.

* Heavier downpours and thunderstorms could cause streams to
quickly overflow their banks... leading to flash flooding.

Precautionary/preparedness actions...

A Flash Flood Watch means that conditions may develop that lead
to flash flooding. Flash flooding is very dangerous.

You should monitor later forecasts and be prepared to take action
should flash flood warnings be issued. Campers and hikers should
consider postponing their Outing until the weather is better.
High streams... as well as streams overflowing their banks... could
make conditions very dangerous.



Burke